Location: Andershausen
(51.8462°N, 9.8595°E)
Time: 02:55:49
(UTC+00:00)

SL-08 R/B - Pass Details

Date: 18 November 2025
Orbit: 943 x 1006 km, 83.0° (Epoch: 15 December)

Event Time Altitude Azimuth Distance (km) Brightness Sun altitude
Rises 16:02:35 0° 179° (S) 3,607 7.8 -5.9°
Reaches altitude 10° 16:05:05 10° 177° (S) 2,661 7.1 -6.2°
Maximum altitude 16:11:06 69° 95° (E) 1,011 4.5 -7.1°
Drops below altitude 10° 16:17:08 10° 14° (NNE) 2,676 6.5 -7.9°
Sets 16:19:39 0° 12° (NNE) 3,629 7.2 -8.3°
